Year,Month,Day,Hour,Minute,Value (Times are PST for barometer in hPa)
2012,12,16,00,00,1002.77
2012,12,16,00,01,1002.72
2012,12,16,00,02,1002.71
2012,12,16,00,03,1002.71
2012,12,16,00,04,1002.75
2012,12,16,00,05,1002.82
2012,12,16,00,06,1002.88
2012,12,16,00,07,1002.89
2012,12,16,00,08,1002.86
2012,12,16,00,09,1002.85
2012,12,16,00,10,1002.81
2012,12,16,00,11,1002.85
2012,12,16,00,12,1002.93
2012,12,16,00,13,1002.99
2012,12,16,00,14,1002.97
2012,12,16,00,15,1002.98
2012,12,16,00,16,1003.01
2012,12,16,00,17,1003.01
2012,12,16,00,18,1003.03
2012,12,16,00,19,1003.07
2012,12,16,00,20,1003.10
2012,12,16,00,21,1003.16
2012,12,16,00,22,1003.16
2012,12,16,00,23,1003.19
2012,12,16,00,24,1003.18
2012,12,16,00,25,1003.17
2012,12,16,00,26,1003.16
2012,12,16,00,27,1003.15
2012,12,16,00,28,1003.17
2012,12,16,00,29,1003.16
2012,12,16,00,30,1003.15
2012,12,16,00,31,1003.19
2012,12,16,00,32,1003.20
2012,12,16,00,33,1003.16
2012,12,16,00,34,1003.17
2012,12,16,00,35,1003.14
2012,12,16,00,36,1003.18
2012,12,16,00,37,1003.18
2012,12,16,00,38,1003.17
2012,12,16,00,39,1003.16
2012,12,16,00,40,1003.17
2012,12,16,00,41,1003.18
2012,12,16,00,42,1003.26
2012,12,16,00,43,1003.30
2012,12,16,00,44,1003.31
2012,12,16,00,45,1003.34
2012,12,16,00,46,1003.35
2012,12,16,00,47,1003.39
2012,12,16,00,48,1003.42
2012,12,16,00,49,1003.46
2012,12,16,00,50,1003.47
2012,12,16,00,51,1003.48
2012,12,16,00,52,1003.45
2012,12,16,00,53,1003.40
2012,12,16,00,54,1003.31
2012,12,16,00,55,1003.23
2012,12,16,00,56,1003.18
2012,12,16,00,57,1003.17
2012,12,16,00,58,1003.14
2012,12,16,00,59,1003.10
2012,12,16,01,00,1003.08
2012,12,16,01,01,1003.10
2012,12,16,01,02,1003.12
2012,12,16,01,03,1003.08
2012,12,16,01,04,1003.07
2012,12,16,01,05,1003.08
2012,12,16,01,06,1003.10
2012,12,16,01,07,1003.10
2012,12,16,01,08,1003.08
2012,12,16,01,09,1003.10
2012,12,16,01,10,1003.08
2012,12,16,01,11,1003.11
2012,12,16,01,12,1003.15
2012,12,16,01,13,1003.13
2012,12,16,01,14,1003.12
2012,12,16,01,15,1003.12
2012,12,16,01,16,1003.12
2012,12,16,01,17,1003.14
2012,12,16,01,18,1003.15
2012,12,16,01,19,1003.13
2012,12,16,01,20,1003.12
2012,12,16,01,21,1003.10
2012,12,16,01,22,1003.08
2012,12,16,01,23,1003.06
2012,12,16,01,24,1003.11
2012,12,16,01,25,1003.15
2012,12,16,01,26,1003.17
2012,12,16,01,27,1003.18
2012,12,16,01,28,1003.15
2012,12,16,01,29,1003.12
2012,12,16,01,30,1003.12
2012,12,16,01,31,1003.14
2012,12,16,01,32,1003.21
2012,12,16,01,33,1003.21
2012,12,16,01,34,1003.20
2012,12,16,01,35,1003.24
2012,12,16,01,36,1003.27
2012,12,16,01,37,1003.29
2012,12,16,01,38,1003.29
2012,12,16,01,39,1003.35
2012,12,16,01,40,1003.37
2012,12,16,01,41,1003.39
2012,12,16,01,42,1003.42
2012,12,16,01,43,1003.42
2012,12,16,01,44,1003.40
2012,12,16,01,45,1003.41
2012,12,16,01,46,1003.40
2012,12,16,01,47,1003.39
2012,12,16,01,48,1003.41
2012,12,16,01,49,1003.40
2012,12,16,01,50,1003.41
2012,12,16,01,51,1003.42
2012,12,16,01,52,1003.42
2012,12,16,01,53,1003.44
2012,12,16,01,54,1003.46
2012,12,16,01,55,1003.46
2012,12,16,01,56,1003.46
2012,12,16,01,57,1003.46
2012,12,16,01,58,1003.46
2012,12,16,01,59,1003.46
2012,12,16,02,00,1003.52
2012,12,16,02,01,1003.56
2012,12,16,02,02,1003.54
2012,12,16,02,03,1003.52
2012,12,16,02,04,1003.52
2012,12,16,02,05,1003.54
2012,12,16,02,06,1003.58
2012,12,16,02,07,1003.61
2012,12,16,02,08,1003.62
2012,12,16,02,09,1003.66
2012,12,16,02,10,1003.61
2012,12,16,02,11,1003.60
2012,12,16,02,12,1003.75
2012,12,16,02,13,1003.81
2012,12,16,02,14,1003.81
2012,12,16,02,15,1003.89
2012,12,16,02,16,1003.89
2012,12,16,02,17,1003.88
2012,12,16,02,18,1003.97
2012,12,16,02,19,1004.03
2012,12,16,02,20,1004.05
2012,12,16,02,21,1004.06
2012,12,16,02,22,1004.06
2012,12,16,02,23,1004.06
2012,12,16,02,24,1004.06
2012,12,16,02,25,1004.06
2012,12,16,02,26,1004.06
2012,12,16,02,27,1004.06
2012,12,16,02,28,1004.08
2012,12,16,02,29,1004.06
2012,12,16,02,30,1004.07
2012,12,16,02,31,1004.10
2012,12,16,02,32,1004.16
2012,12,16,02,33,1004.18
2012,12,16,02,34,1004.15
2012,12,16,02,35,1004.17
2012,12,16,02,36,1004.16
2012,12,16,02,37,1004.15
2012,12,16,02,38,1004.15
2012,12,16,02,39,1004.17
2012,12,16,02,40,1004.14
2012,12,16,02,41,1004.14
2012,12,16,02,42,1004.13
2012,12,16,02,43,1004.12
2012,12,16,02,44,1004.15
2012,12,16,02,45,1004.19
2012,12,16,02,46,1004.20
2012,12,16,02,47,1004.18
2012,12,16,02,48,1004.19
2012,12,16,02,49,1004.18
2012,12,16,02,50,1004.19
2012,12,16,02,51,1004.16
2012,12,16,02,52,1004.15
2012,12,16,02,53,1004.17
2012,12,16,02,54,1004.15
2012,12,16,02,55,1004.13
2012,12,16,02,56,1004.15
2012,12,16,02,57,1004.13
2012,12,16,02,58,1004.14
2012,12,16,02,59,1004.19
2012,12,16,03,00,1004.18
2012,12,16,03,01,1004.21
2012,12,16,03,02,1004.21
2012,12,16,03,06,1004.17
2012,12,16,03,07,1004.20
2012,12,16,03,08,1004.22
2012,12,16,03,09,1004.21
2012,12,16,03,10,1004.18
2012,12,16,03,11,1004.24
2012,12,16,03,12,1004.27
2012,12,16,03,13,1004.18
2012,12,16,03,14,1004.13
2012,12,16,03,15,1004.13
2012,12,16,03,16,1004.16
2012,12,16,03,17,1004.14
2012,12,16,03,18,1004.16
2012,12,16,03,19,1004.14
2012,12,16,03,20,1004.13
2012,12,16,03,21,1004.13
2012,12,16,03,22,1004.11
2012,12,16,03,23,1004.12
2012,12,16,03,24,1004.13
2012,12,16,03,25,1004.11
2012,12,16,03,26,1004.10
2012,12,16,03,27,1004.07
2012,12,16,03,28,1004.09
2012,12,16,03,29,1004.06
2012,12,16,03,30,1004.05
2012,12,16,03,31,1004.06
2012,12,16,03,32,1004.09
2012,12,16,03,33,1004.07
2012,12,16,03,34,1004.02
2012,12,16,03,35,1004.04
2012,12,16,03,36,1004.04
2012,12,16,03,37,1003.96
2012,12,16,03,38,1003.95
2012,12,16,03,39,1003.99
2012,12,16,03,40,1003.97
2012,12,16,03,41,1003.99
2012,12,16,03,42,1004.00
2012,12,16,03,43,1003.97
2012,12,16,03,44,1003.96
2012,12,16,03,45,1004.03
2012,12,16,03,46,1004.04
2012,12,16,03,47,1004.03
2012,12,16,03,48,1004.01
2012,12,16,03,49,1004.04
2012,12,16,03,50,1004.04
2012,12,16,03,51,1004.01
2012,12,16,03,52,1004.00
2012,12,16,03,53,1003.97
2012,12,16,03,54,1003.98
2012,12,16,03,55,1003.97
2012,12,16,03,56,1003.99
2012,12,16,03,57,1004.02
2012,12,16,03,58,1003.97
2012,12,16,03,59,1003.98
2012,12,16,04,00,1004.00
2012,12,16,04,01,1003.95
2012,12,16,04,02,1003.95
2012,12,16,04,03,1003.96
2012,12,16,04,04,1003.99
2012,12,16,04,05,1003.95
2012,12,16,04,06,1003.98
2012,12,16,04,07,1004.04
2012,12,16,04,08,1004.13
2012,12,16,04,09,1004.14
2012,12,16,04,10,1004.11
2012,12,16,04,11,1004.10
2012,12,16,04,12,1004.12
2012,12,16,04,13,1004.13
2012,12,16,04,14,1004.16
2012,12,16,04,15,1004.17
2012,12,16,04,16,1004.23
2012,12,16,04,17,1004.24
2012,12,16,04,18,1004.23
2012,12,16,04,19,1004.30
2012,12,16,04,20,1004.27
2012,12,16,04,21,1004.26
2012,12,16,04,22,1004.29
2012,12,16,04,23,1004.33
2012,12,16,04,24,1004.31
2012,12,16,04,25,1004.30
2012,12,16,04,26,1004.30
2012,12,16,04,27,1004.23
2012,12,16,04,28,1004.15
2012,12,16,04,29,1004.18
2012,12,16,04,30,1004.15
2012,12,16,04,31,1004.13
2012,12,16,04,32,1004.13
2012,12,16,04,33,1004.20
2012,12,16,04,34,1004.26
2012,12,16,04,35,1004.20
2012,12,16,04,36,1004.21
2012,12,16,04,37,1004.26
2012,12,16,04,38,1004.21
2012,12,16,04,39,1004.26
2012,12,16,04,40,1004.30
2012,12,16,04,41,1004.30
2012,12,16,04,42,1004.23
2012,12,16,04,43,1004.22
2012,12,16,04,44,1004.28
2012,12,16,04,45,1004.33
2012,12,16,04,46,1004.31
2012,12,16,04,47,1004.35
2012,12,16,04,48,1004.32
2012,12,16,04,49,1004.33
2012,12,16,04,50,1004.29
2012,12,16,04,51,1004.27
2012,12,16,04,52,1004.32
2012,12,16,04,53,1004.38
2012,12,16,04,54,1004.38
2012,12,16,04,55,1004.37
2012,12,16,04,56,1004.35
2012,12,16,04,57,1004.38
2012,12,16,04,58,1004.40
2012,12,16,04,59,1004.38
2012,12,16,05,00,1004.39
2012,12,16,05,01,1004.34
2012,12,16,05,02,1004.30
2012,12,16,05,03,1004.33
2012,12,16,05,04,1004.36
2012,12,16,05,05,1004.32
2012,12,16,05,06,1004.28
2012,12,16,05,07,1004.29
2012,12,16,05,08,1004.30
2012,12,16,05,09,1004.35
2012,12,16,05,10,1004.32
2012,12,16,05,11,1004.28
2012,12,16,05,12,1004.29
2012,12,16,05,13,1004.28
2012,12,16,05,14,1004.27
2012,12,16,05,15,1004.29
2012,12,16,05,16,1004.30
2012,12,16,05,17,1004.33
2012,12,16,05,18,1004.34
2012,12,16,05,19,1004.34
2012,12,16,05,20,1004.34
2012,12,16,05,21,1004.38
2012,12,16,05,22,1004.38
2012,12,16,05,23,1004.42
2012,12,16,05,24,1004.48
2012,12,16,05,25,1004.53
2012,12,16,05,26,1004.51
2012,12,16,05,27,1004.50
2012,12,16,05,28,1004.53
2012,12,16,05,29,1004.54
2012,12,16,05,30,1004.54
2012,12,16,05,31,1004.51
2012,12,16,05,32,1004.46
2012,12,16,05,33,1004.48
2012,12,16,05,34,1004.43
2012,12,16,05,35,1004.47
2012,12,16,05,36,1004.46
2012,12,16,05,37,1004.48
2012,12,16,05,38,1004.46
2012,12,16,05,39,1004.48
2012,12,16,05,40,1004.50
2012,12,16,05,41,1004.55
2012,12,16,05,42,1004.49
2012,12,16,05,43,1004.51
2012,12,16,05,44,1004.54
2012,12,16,05,45,1004.54
2012,12,16,05,46,1004.61
2012,12,16,05,47,1004.62
2012,12,16,05,48,1004.61
2012,12,16,05,49,1004.58
2012,12,16,05,50,1004.60
2012,12,16,05,51,1004.61
2012,12,16,05,52,1004.63
2012,12,16,05,53,1004.66
2012,12,16,05,54,1004.75
2012,12,16,05,55,1004.75
2012,12,16,05,56,1004.72
2012,12,16,05,57,1004.71
2012,12,16,05,58,1004.73
2012,12,16,05,59,1004.72
2012,12,16,06,00,1004.77
2012,12,16,06,01,1004.76
2012,12,16,06,02,1004.79
2012,12,16,06,03,1004.81
2012,12,16,06,04,1004.79
2012,12,16,06,05,1004.78
2012,12,16,06,06,1004.78
2012,12,16,06,07,1004.80
2012,12,16,06,08,1004.74
2012,12,16,06,09,1004.79
2012,12,16,06,10,1004.82
2012,12,16,06,11,1004.81
2012,12,16,06,12,1004.81
2012,12,16,06,13,1004.83
2012,12,16,06,14,1004.82
2012,12,16,06,15,1004.83
2012,12,16,06,16,1004.82
2012,12,16,06,17,1004.76
2012,12,16,06,18,1004.79
2012,12,16,06,19,1004.76
2012,12,16,06,20,1004.72
2012,12,16,06,21,1004.71
2012,12,16,06,22,1004.68
2012,12,16,06,23,1004.67
2012,12,16,06,24,1004.63
2012,12,16,06,25,1004.58
2012,12,16,06,26,1004.60
2012,12,16,06,27,1004.50
2012,12,16,06,28,1004.48
2012,12,16,06,29,1004.46
2012,12,16,06,30,1004.51
2012,12,16,06,31,1004.56
2012,12,16,06,32,1004.57
2012,12,16,06,33,1004.64
2012,12,16,06,34,1004.74
2012,12,16,06,35,1004.75
2012,12,16,06,36,1004.72
2012,12,16,06,37,1004.73
2012,12,16,06,38,1004.69
2012,12,16,06,39,1004.70
2012,12,16,06,40,1004.64
2012,12,16,06,41,1004.63
2012,12,16,06,42,1004.69
2012,12,16,06,43,1004.57
2012,12,16,06,44,1004.59
2012,12,16,06,45,1004.59
2012,12,16,06,46,1004.66
2012,12,16,06,47,1004.68
2012,12,16,06,48,1004.72
2012,12,16,06,49,1004.69
2012,12,16,06,50,1004.70
2012,12,16,06,51,1004.73
2012,12,16,06,52,1004.67
2012,12,16,06,53,1004.66
2012,12,16,06,54,1004.72
2012,12,16,06,55,1004.77
2012,12,16,06,56,1004.76
2012,12,16,06,57,1004.77
2012,12,16,06,58,1004.80
2012,12,16,06,59,1004.81
2012,12,16,07,00,1004.79
2012,12,16,07,01,1004.80
2012,12,16,07,02,1004.79
2012,12,16,07,03,1004.80
2012,12,16,07,04,1004.71
2012,12,16,07,05,1004.70
2012,12,16,07,06,1004.71
2012,12,16,07,07,1004.71
2012,12,16,07,08,1004.66
2012,12,16,07,09,1004.59
2012,12,16,07,10,1004.62
2012,12,16,07,11,1004.69
2012,12,16,07,12,1004.68
2012,12,16,07,13,1004.72
2012,12,16,07,14,1004.69
2012,12,16,07,15,1004.63
2012,12,16,07,16,1004.65
2012,12,16,07,17,1004.60
2012,12,16,07,18,1004.66
2012,12,16,07,19,1004.65
2012,12,16,07,20,1004.67
2012,12,16,07,21,1004.65
2012,12,16,07,22,1004.61
2012,12,16,07,23,1004.61
2012,12,16,07,24,1004.61
2012,12,16,07,25,1004.58
2012,12,16,07,26,1004.62
2012,12,16,07,27,1004.62
2012,12,16,07,28,1004.56
2012,12,16,07,29,1004.59
2012,12,16,07,30,1004.58
2012,12,16,07,31,1004.62
2012,12,16,07,32,1004.64
2012,12,16,07,33,1004.69
2012,12,16,07,34,1004.78
2012,12,16,07,35,1004.72
2012,12,16,07,36,1004.65
2012,12,16,07,37,1004.64
2012,12,16,07,38,1004.66
2012,12,16,07,39,1004.67
2012,12,16,07,40,1004.70
2012,12,16,07,41,1004.71
2012,12,16,07,42,1004.71
2012,12,16,07,43,1004.68
2012,12,16,07,44,1004.65
2012,12,16,07,45,1004.69
2012,12,16,07,46,1004.66
2012,12,16,07,47,1004.69
2012,12,16,07,48,1004.68
2012,12,16,07,49,1004.70
2012,12,16,07,50,1004.71
2012,12,16,07,51,1004.67
2012,12,16,07,52,1004.66
2012,12,16,07,53,1004.67
2012,12,16,07,54,1004.67
2012,12,16,07,55,1004.67
2012,12,16,07,56,1004.70
2012,12,16,07,57,1004.68
2012,12,16,07,58,1004.63
2012,12,16,07,59,1004.65
2012,12,16,08,00,1004.65
2012,12,16,08,01,1004.66
2012,12,16,08,02,1004.65
2012,12,16,08,03,1004.71
2012,12,16,08,04,1004.67
2012,12,16,08,05,1004.64
2012,12,16,08,06,1004.62
2012,12,16,08,07,1004.65
2012,12,16,08,08,1004.67
2012,12,16,08,09,1004.63
2012,12,16,08,10,1004.56
2012,12,16,08,11,1004.51
2012,12,16,08,12,1004.55
2012,12,16,08,13,1004.60
2012,12,16,08,14,1004.57
2012,12,16,08,15,1004.56
2012,12,16,08,16,1004.52
2012,12,16,08,17,1004.50
2012,12,16,08,18,1004.46
2012,12,16,08,19,1004.48
2012,12,16,08,20,1004.46
2012,12,16,08,21,1004.46
2012,12,16,08,22,1004.41
2012,12,16,08,23,1004.39
2012,12,16,08,24,1004.40
2012,12,16,08,25,1004.43
2012,12,16,08,26,1004.44
2012,12,16,08,27,1004.41
2012,12,16,08,28,1004.36
2012,12,16,08,29,1004.38
2012,12,16,08,30,1004.38
2012,12,16,08,31,1004.37
2012,12,16,08,32,1004.35
2012,12,16,08,33,1004.34
2012,12,16,08,34,1004.34
2012,12,16,08,35,1004.34
2012,12,16,08,36,1004.34
2012,12,16,08,37,1004.36
2012,12,16,08,38,1004.35
2012,12,16,08,39,1004.31
2012,12,16,08,40,1004.30
2012,12,16,08,41,1004.30
2012,12,16,08,42,1004.33
2012,12,16,08,43,1004.31
2012,12,16,08,44,1004.25
2012,12,16,08,45,1004.21
2012,12,16,08,46,1004.20
2012,12,16,08,47,1004.15
2012,12,16,08,48,1004.16
2012,12,16,08,49,1004.21
2012,12,16,08,50,1004.16
2012,12,16,08,51,1004.18
2012,12,16,08,52,1004.14
2012,12,16,08,53,1004.16
2012,12,16,08,54,1004.18
2012,12,16,08,55,1004.13
2012,12,16,08,56,1004.12
2012,12,16,08,57,1004.11
2012,12,16,08,58,1004.20
2012,12,16,08,59,1004.27
2012,12,16,09,00,1004.27
2012,12,16,09,01,1004.24
2012,12,16,09,02,1004.21
2012,12,16,09,03,1004.20
2012,12,16,09,04,1004.18
2012,12,16,09,05,1004.14
2012,12,16,09,06,1004.08
2012,12,16,09,07,1004.06
2012,12,16,09,08,1004.06
2012,12,16,09,09,1004.02
2012,12,16,09,10,1004.08
2012,12,16,09,11,1004.11
2012,12,16,09,12,1004.07
2012,12,16,09,13,1004.06
2012,12,16,09,14,1004.06
2012,12,16,09,15,1004.13
2012,12,16,09,16,1004.06
2012,12,16,09,17,1004.00
2012,12,16,09,18,1003.93
2012,12,16,09,19,1003.90
2012,12,16,09,20,1003.83
2012,12,16,09,21,1003.84
2012,12,16,09,22,1003.86
2012,12,16,09,23,1003.84
2012,12,16,09,24,1003.80
2012,12,16,09,25,1003.79
2012,12,16,09,26,1003.79
2012,12,16,09,27,1003.72
2012,12,16,09,28,1003.72
2012,12,16,09,29,1003.73
2012,12,16,09,30,1003.71
2012,12,16,09,31,1003.72
2012,12,16,09,32,1003.68
2012,12,16,09,33,1003.62
2012,12,16,09,34,1003.49
2012,12,16,09,35,1003.31
2012,12,16,09,36,1003.17
2012,12,16,09,37,1003.12
2012,12,16,09,38,1003.20
2012,12,16,09,39,1003.36
2012,12,16,09,40,1003.52
2012,12,16,09,41,1003.53
2012,12,16,09,42,1003.48
2012,12,16,09,43,1003.43
2012,12,16,09,44,1003.51
2012,12,16,09,45,1003.60
2012,12,16,09,46,1003.65
2012,12,16,09,47,1003.63
2012,12,16,09,48,1003.62
2012,12,16,09,49,1003.65
2012,12,16,09,50,1003.66
2012,12,16,09,51,1003.61
2012,12,16,09,52,1003.61
2012,12,16,09,53,1003.60
2012,12,16,09,54,1003.59
2012,12,16,09,55,1003.61
2012,12,16,09,56,1003.65
2012,12,16,09,57,1003.63
2012,12,16,09,58,1003.67
2012,12,16,09,59,1003.62
2012,12,16,10,00,1003.66
2012,12,16,10,01,1003.72
2012,12,16,10,02,1003.69
2012,12,16,10,03,1003.68
2012,12,16,10,04,1003.74
2012,12,16,10,05,1003.78
2012,12,16,10,06,1003.86
2012,12,16,10,07,1003.90
2012,12,16,10,08,1003.87
2012,12,16,10,09,1003.86
2012,12,16,10,10,1003.84
2012,12,16,10,11,1003.80
2012,12,16,10,12,1003.86
2012,12,16,10,13,1003.87
2012,12,16,10,14,1003.89
2012,12,16,10,15,1003.86
2012,12,16,10,16,1003.83
2012,12,16,10,17,1003.85
2012,12,16,10,18,1003.84
2012,12,16,10,19,1003.74
2012,12,16,10,20,1003.67
2012,12,16,10,21,1003.72
2012,12,16,10,22,1003.71
2012,12,16,10,23,1003.74
2012,12,16,10,24,1003.71
2012,12,16,10,25,1003.67
2012,12,16,10,26,1003.63
2012,12,16,10,27,1003.58
2012,12,16,10,28,1003.60
2012,12,16,10,29,1003.60
2012,12,16,10,30,1003.59
2012,12,16,10,31,1003.54
2012,12,16,10,32,1003.55
2012,12,16,10,33,1003.53
2012,12,16,10,34,1003.50
2012,12,16,10,35,1003.49
2012,12,16,10,36,1003.49
2012,12,16,10,37,1003.49
2012,12,16,10,38,1003.47
2012,12,16,10,39,1003.46
2012,12,16,10,40,1003.48
2012,12,16,10,41,1003.47
2012,12,16,10,42,1003.50
2012,12,16,10,43,1003.48
2012,12,16,10,44,1003.46
2012,12,16,10,45,1003.35
2012,12,16,10,46,1003.29
2012,12,16,10,47,1003.33
2012,12,16,10,48,1003.28
2012,12,16,10,49,1003.25
2012,12,16,10,50,1003.25
2012,12,16,10,51,1003.20
2012,12,16,10,52,1003.18
2012,12,16,10,53,1003.16
2012,12,16,10,54,1003.13
2012,12,16,10,55,1003.09
2012,12,16,10,56,1003.06
2012,12,16,10,57,1003.00
2012,12,16,10,58,1002.98
2012,12,16,10,59,1002.98
2012,12,16,11,00,1002.92
2012,12,16,11,01,1002.90
2012,12,16,11,02,1002.96
2012,12,16,11,03,1002.87
2012,12,16,11,04,1002.79
2012,12,16,11,05,1002.78
2012,12,16,11,06,1002.78
2012,12,16,11,07,1002.75
2012,12,16,11,08,1002.77
2012,12,16,11,09,1002.75
2012,12,16,11,10,1002.74
2012,12,16,11,11,1002.77
2012,12,16,11,12,1002.75
2012,12,16,11,13,1002.74
2012,12,16,11,14,1002.72
2012,12,16,11,15,1002.73
2012,12,16,11,16,1002.70
2012,12,16,11,17,1002.72
2012,12,16,11,18,1002.74
2012,12,16,11,19,1002.72
2012,12,16,11,20,1002.71
2012,12,16,11,21,1002.65
2012,12,16,11,22,1002.56
2012,12,16,11,23,1002.56
2012,12,16,11,24,1002.51
2012,12,16,11,25,1002.47
2012,12,16,11,26,1002.50
2012,12,16,11,27,1002.47
2012,12,16,11,28,1002.42
2012,12,16,11,29,1002.43
2012,12,16,11,30,1002.39
2012,12,16,11,31,1002.40
2012,12,16,11,32,1002.38
2012,12,16,11,33,1002.32
2012,12,16,11,34,1002.28
2012,12,16,11,35,1002.22
2012,12,16,11,36,1002.16
2012,12,16,11,37,1002.05
2012,12,16,11,38,1002.00
2012,12,16,11,39,1002.02
2012,12,16,11,40,1002.01
2012,12,16,11,41,1002.02
2012,12,16,11,42,1002.01
2012,12,16,11,43,1002.00
2012,12,16,11,44,1002.00
2012,12,16,11,45,1001.93
2012,12,16,11,46,1001.87
2012,12,16,11,47,1001.86
2012,12,16,11,48,1001.82
2012,12,16,11,49,1001.75
2012,12,16,11,50,1001.70
2012,12,16,11,51,1001.65
2012,12,16,11,52,1001.63
2012,12,16,11,53,1001.60
2012,12,16,11,54,1001.63
2012,12,16,11,55,1001.56
2012,12,16,11,56,1001.51
2012,12,16,11,57,1001.50
2012,12,16,11,58,1001.42
2012,12,16,11,59,1001.39
2012,12,16,12,00,1001.31
2012,12,16,12,01,1001.25
2012,12,16,12,02,1001.21
2012,12,16,12,03,1001.19
2012,12,16,12,04,1001.14
2012,12,16,12,05,1001.08
2012,12,16,12,06,1001.11
2012,12,16,12,07,1001.04
2012,12,16,12,08,1000.98
2012,12,16,12,09,1000.98
2012,12,16,12,10,1001.02
2012,12,16,12,11,1001.00
2012,12,16,12,12,1000.98
2012,12,16,12,13,1000.88
2012,12,16,12,14,1000.77
2012,12,16,12,15,1000.70
2012,12,16,12,16,1000.65
2012,12,16,12,17,1000.58
2012,12,16,12,18,1000.54
2012,12,16,12,19,1000.50
2012,12,16,12,20,1000.43
2012,12,16,12,21,1000.38
2012,12,16,12,22,1000.37
2012,12,16,12,23,1000.35
2012,12,16,12,24,1000.34
2012,12,16,12,25,1000.34
2012,12,16,12,26,1000.32
2012,12,16,12,27,1000.28
2012,12,16,12,28,1000.21
2012,12,16,12,29,1000.08
2012,12,16,12,30,1000.03
2012,12,16,12,31,999.97
2012,12,16,12,32,999.91
2012,12,16,12,33,999.92
2012,12,16,12,34,999.91
2012,12,16,12,35,999.88
2012,12,16,12,36,999.91
2012,12,16,12,37,999.80
2012,12,16,12,38,999.71
2012,12,16,12,39,999.66
2012,12,16,12,40,999.63
2012,12,16,12,41,999.58
2012,12,16,12,42,999.58
2012,12,16,12,43,999.53
2012,12,16,12,44,999.47
2012,12,16,12,45,999.41
2012,12,16,12,46,999.37
2012,12,16,12,47,999.32
2012,12,16,12,48,999.24
2012,12,16,12,49,999.25
2012,12,16,12,50,999.23
2012,12,16,12,51,999.20
2012,12,16,12,52,999.19
2012,12,16,12,53,999.19
2012,12,16,12,54,999.16
2012,12,16,12,55,999.07
2012,12,16,12,56,998.96
2012,12,16,12,57,998.83
2012,12,16,12,58,998.67
2012,12,16,12,59,998.64
2012,12,16,13,00,998.65
2012,12,16,13,01,998.65
2012,12,16,13,02,998.62
2012,12,16,13,03,998.61
2012,12,16,13,04,998.59
2012,12,16,13,05,998.53
2012,12,16,13,06,998.49
2012,12,16,13,07,998.44
2012,12,16,13,08,998.41
2012,12,16,13,09,998.39
2012,12,16,13,10,998.35
2012,12,16,13,11,998.37
2012,12,16,13,12,998.35
2012,12,16,13,13,998.32
2012,12,16,13,14,998.31
2012,12,16,13,15,998.31
2012,12,16,13,16,998.22
2012,12,16,13,17,998.15
2012,12,16,13,18,998.08
2012,12,16,13,19,998.04
2012,12,16,13,20,998.04
2012,12,16,13,21,998.06
2012,12,16,13,22,998.02
2012,12,16,13,23,998.03
2012,12,16,13,24,997.99
2012,12,16,13,25,997.97
2012,12,16,13,26,997.92
2012,12,16,13,27,997.90
2012,12,16,13,28,997.85
2012,12,16,13,29,997.81
2012,12,16,13,30,997.80
2012,12,16,13,31,997.73
2012,12,16,13,32,997.61
2012,12,16,13,33,997.54
2012,12,16,13,34,997.49
2012,12,16,13,35,997.44
2012,12,16,13,36,997.43
2012,12,16,13,37,997.40
2012,12,16,13,38,997.35
2012,12,16,13,39,997.30
2012,12,16,13,40,997.31
2012,12,16,13,41,997.28
2012,12,16,13,42,997.33
2012,12,16,13,43,997.32
2012,12,16,13,44,997.27
2012,12,16,13,45,997.23
2012,12,16,13,46,997.24
2012,12,16,13,47,997.23
2012,12,16,13,48,997.20
2012,12,16,13,49,997.15
2012,12,16,13,50,997.04
2012,12,16,13,51,996.90
2012,12,16,13,52,996.80
2012,12,16,13,53,996.74
2012,12,16,13,54,996.74
2012,12,16,13,55,996.75
2012,12,16,13,56,996.75
2012,12,16,13,57,996.73
2012,12,16,13,58,996.72
2012,12,16,13,59,996.72
2012,12,16,14,00,996.72
2012,12,16,14,01,996.69
2012,12,16,14,02,996.64
2012,12,16,14,03,996.61
2012,12,16,14,04,996.57
2012,12,16,14,05,996.52
2012,12,16,14,06,996.51
2012,12,16,14,07,996.47
2012,12,16,14,08,996.47
2012,12,16,14,09,996.46
2012,12,16,14,10,996.45
2012,12,16,14,11,996.41
2012,12,16,14,12,996.29
2012,12,16,14,13,996.22
2012,12,16,14,14,996.17
2012,12,16,14,15,996.09
2012,12,16,14,16,996.09
2012,12,16,14,17,996.09
2012,12,16,14,18,996.05
2012,12,16,14,19,996.00
2012,12,16,14,20,995.95
2012,12,16,14,21,995.91
2012,12,16,14,22,995.86
2012,12,16,14,23,995.82
2012,12,16,14,24,995.72
2012,12,16,14,25,995.71
2012,12,16,14,26,995.62
2012,12,16,14,27,995.52
2012,12,16,14,28,995.43
2012,12,16,14,29,995.37
2012,12,16,14,30,995.36
2012,12,16,14,31,995.29
2012,12,16,14,32,995.24
2012,12,16,14,33,995.25
2012,12,16,14,34,995.21
2012,12,16,14,35,995.22
2012,12,16,14,36,995.19
2012,12,16,14,37,995.11
2012,12,16,14,38,995.07
2012,12,16,14,39,994.95
2012,12,16,14,40,994.86
2012,12,16,14,41,994.83
2012,12,16,14,42,994.82
2012,12,16,14,43,994.77
2012,12,16,14,44,994.75
2012,12,16,14,45,994.75
2012,12,16,14,46,994.73
2012,12,16,14,47,994.70
2012,12,16,14,48,994.71
2012,12,16,14,49,994.67
2012,12,16,14,50,994.55
2012,12,16,14,51,994.59
2012,12,16,14,52,994.49
2012,12,16,14,53,994.32
2012,12,16,14,54,994.25
2012,12,16,14,55,994.20
2012,12,16,14,56,994.20
2012,12,16,14,57,994.19
2012,12,16,14,58,994.20
2012,12,16,14,59,994.17
2012,12,16,15,00,994.14
2012,12,16,15,01,994.12
2012,12,16,15,02,994.07
2012,12,16,15,03,994.06
2012,12,16,15,04,994.10
2012,12,16,15,05,994.00
2012,12,16,15,06,993.98
2012,12,16,15,07,993.98
2012,12,16,15,08,994.00
2012,12,16,15,09,993.96
2012,12,16,15,10,993.94
2012,12,16,15,11,993.94
2012,12,16,15,12,993.78
2012,12,16,15,13,993.74
2012,12,16,15,14,993.71
2012,12,16,15,15,993.65
2012,12,16,15,16,993.59
2012,12,16,15,17,993.57
2012,12,16,15,18,993.53
2012,12,16,15,19,993.48
2012,12,16,15,20,993.45
2012,12,16,15,21,993.41
2012,12,16,15,22,993.35
2012,12,16,15,23,993.33
2012,12,16,15,24,993.22
2012,12,16,15,25,993.08
2012,12,16,15,26,993.05
2012,12,16,15,27,992.95
2012,12,16,15,28,992.87
2012,12,16,15,29,992.83
2012,12,16,15,30,992.85
2012,12,16,15,31,992.82
2012,12,16,15,32,992.74
2012,12,16,15,33,992.63
2012,12,16,15,34,992.56
2012,12,16,15,35,992.57
2012,12,16,15,36,992.49
2012,12,16,15,37,992.43
2012,12,16,15,38,992.40
2012,12,16,15,39,992.36
2012,12,16,15,40,992.24
2012,12,16,15,41,992.18
2012,12,16,15,42,992.16
2012,12,16,15,43,992.08
2012,12,16,15,44,991.91
2012,12,16,15,45,991.84
2012,12,16,15,46,991.86
2012,12,16,15,47,991.83
2012,12,16,15,48,991.78
2012,12,16,15,49,991.75
2012,12,16,15,50,991.66
2012,12,16,15,51,991.56
2012,12,16,15,52,991.45
2012,12,16,15,53,991.31
2012,12,16,15,54,991.26
2012,12,16,15,55,991.20
2012,12,16,15,56,991.11
2012,12,16,15,57,990.99
2012,12,16,15,58,990.93
2012,12,16,15,59,990.89
2012,12,16,16,00,990.88
2012,12,16,16,01,990.87
2012,12,16,16,02,990.82
2012,12,16,16,03,990.72
2012,12,16,16,04,990.62
2012,12,16,16,05,990.56
2012,12,16,16,06,990.51
2012,12,16,16,07,990.38